Weather History for Cody, WY

Change the Weather History Date:

Saturday, December 24, 2011

  Actual Average Record
Temperature  
Mean Temperature 30 °F -  
Max Temperature 44 °F 32 °F 59 °F (1950)
Min Temperature 15 °F 11 °F -28 °F (1983)
Degree Days  
Heating Degree Days 36    
Moisture  
Dew Point 11 °F    
Average Humidity 51    
Maximum Humidity 73    
Minimum Humidity 24    
Precipitation  
Precipitation 0.00 in - - ()
Sea Level Pressure  
Sea Level Pressure 30.32 in    
Wind  
Wind Speed 8 mph (West)    
Max Wind Speed 22 mph    
Max Gust Speed 32 mph    
Visibility 10 miles    
Events      
Averages and records for this station are not official NWS values.
T = Trace of Precipitation, MM = Missing Value Source: NWS Daily Summary

Daily Weather History Graph

Daily Weather History Graph

Search for Another Location

Airport:

Trip Planner

Search our weather history database for the weather conditions in past years. The results will help you decide how hot, cold, wet, or windy it might be!

Date:

Astronomy

Dec. 24, 2011 Rise Set
Actual Time 7:50 AM MST 4:40 PM MST
Civil Twilight 7:17 AM MST 5:14 PM MST
Nautical Twilight 6:40 AM MST 5:50 PM MST
Astronomical Twilight 6:04 AM MST 6:26 PM MST
Moon 7:41 AM MST (12/24) 4:57 PM MST (12/24)
Length of Visible Light 9h 56m
Length of Day
8h 49m
New Moon, 0% of the Moon is Illuminated
Dec 24
New Moon
Dec 31
First Quarter
Jan 9
Full
Jan 16
Last Quarter
Jan 23
New

Hourly Weather History & Observations

Time (MST) Temp. Windchill Dew Point Humidity Pressure Visibility Wind Dir Wind Speed Gust Speed Precip Events Conditions
12:15 AM - - - N/A% 30.29 in 10.0 mi West 8.1 mph - N/A   Clear
12:35 AM - - - N/A% 30.29 in 10.0 mi West 12.7 mph 19.6 mph N/A   Clear
12:55 AM - - - N/A% 30.29 in 10.0 mi West 12.7 mph 17.3 mph N/A   Clear
1:15 AM - - - N/A% 30.29 in 10.0 mi WSW 10.4 mph 18.4 mph N/A   Clear
1:35 AM - - - N/A% 30.29 in 10.0 mi West 3.5 mph - N/A   Clear
1:55 AM - - - N/A% 30.30 in 10.0 mi South 3.5 mph - N/A   Clear
2:15 AM - - - N/A% 30.30 in 10.0 mi SW 10.4 mph - N/A   Clear
2:35 AM - - - N/A% 30.30 in 10.0 mi SW 3.5 mph - N/A   Clear
2:55 AM 35.6 °F 28.0 °F 1.4 °F 24% 30.30 in 10.0 mi West 10.4 mph 16.1 mph N/A   Clear
3:35 AM - - - N/A% 30.30 in 10.0 mi West 6.9 mph 16.1 mph N/A   Clear
3:55 AM - - - N/A% 30.29 in 10.0 mi West 5.8 mph 16.1 mph N/A   Clear
4:15 AM - - - N/A% 30.29 in 10.0 mi West 5.8 mph - N/A   Clear
4:55 AM - - - N/A% 30.29 in 10.0 mi NE 8.1 mph 16.1 mph N/A   Clear
5:15 AM 17.6 °F - 5.0 °F 58% 30.30 in 10.0 mi Calm Calm - N/A   Clear
5:35 AM 21.2 °F - 6.8 °F 54% 30.30 in 10.0 mi Calm Calm - N/A   Clear
5:55 AM 30.2 °F 26.7 °F 8.6 °F 40% 30.29 in 10.0 mi SW 3.5 mph - N/A   Clear
6:15 AM - - - N/A% 30.28 in 10.0 mi West 10.4 mph 19.6 mph N/A   Clear
6:35 AM - - - N/A% 30.30 in 10.0 mi North 5.8 mph - N/A   Clear
6:55 AM 17.6 °F 6.4 °F 8.6 °F 68% 30.29 in 10.0 mi NW 9.2 mph - N/A   Clear
7:15 AM 21.2 °F 14.9 °F 8.6 °F 58% 30.31 in 10.0 mi North 4.6 mph - N/A   Clear
7:35 AM 17.6 °F - 6.8 °F 63% 30.31 in 10.0 mi Calm Calm - N/A   Clear
7:55 AM 15.8 °F 10.2 °F 8.6 °F 73% 30.31 in 10.0 mi East 3.5 mph - N/A   Clear
8:15 AM 30.2 °F 25.4 °F 12.2 °F 47% 30.30 in 10.0 mi South 4.6 mph - N/A   Clear
8:35 AM 30.2 °F 26.7 °F 10.4 °F 44% 30.31 in 10.0 mi NNW 3.5 mph - N/A   Partly Cloudy
8:55 AM 37.4 °F 28.9 °F 12.2 °F 36% 30.31 in 10.0 mi West 13.8 mph 21.9 mph N/A   Mostly Cloudy
9:15 AM - - - N/A% 30.31 in 10.0 mi West 16.1 mph 24.2 mph N/A   Overcast
9:35 AM - - - N/A% 30.31 in 10.0 mi WSW 12.7 mph 26.5 mph N/A   Mostly Cloudy
9:55 AM - - - N/A% 30.31 in 10.0 mi WSW 21.9 mph 32.2 mph N/A   Clear
10:55 AM - - - N/A% 30.32 in 10.0 mi Calm Calm - N/A   Scattered Clouds
11:15 AM - - - N/A% 30.31 in 10.0 mi West 15.0 mph 19.6 mph N/A   Clear
11:35 AM 30.2 °F 25.4 °F 6.8 °F 37% 30.32 in 10.0 mi North 4.6 mph 18.4 mph N/A   Clear
11:55 AM 24.8 °F 19.1 °F 12.2 °F 59% 30.31 in 10.0 mi North 4.6 mph - N/A   Mostly Cloudy
12:15 PM 28.4 °F - 15.8 °F 59% 30.30 in 10.0 mi Calm Calm - N/A   Partly Cloudy
12:35 PM - - - N/A% 30.29 in 10.0 mi West 12.7 mph 21.9 mph N/A   Clear
12:55 PM - - - N/A% 30.28 in 10.0 mi WSW 16.1 mph 21.9 mph N/A   Clear
1:15 PM - - - N/A% 30.29 in 10.0 mi WSW 10.4 mph - N/A   Clear
1:35 PM 41.0 °F 38.0 °F 15.8 °F 36% 30.29 in 10.0 mi NNW 4.6 mph - N/A   Clear
1:55 PM 37.4 °F 30.8 °F 17.6 °F 45% 30.28 in 10.0 mi West 9.2 mph - N/A   Clear
2:15 PM 44.6 °F 38.4 °F 15.8 °F 31% 30.27 in 10.0 mi WSW 12.7 mph 17.3 mph N/A   Clear
2:35 PM 44.6 °F 39.7 °F 15.8 °F 31% 30.29 in 10.0 mi WNW 9.2 mph 16.1 mph N/A   Clear
2:55 PM 24.8 °F 13.4 °F 12.2 °F 59% 30.31 in 10.0 mi NNE 12.7 mph - N/A   Clear
3:15 PM - - - N/A% 30.31 in 10.0 mi NNE 8.1 mph - N/A   Clear
3:35 PM 24.8 °F 14.0 °F 15.8 °F 69% 30.32 in 10.0 mi NNE 11.5 mph - N/A   Clear
3:55 PM 24.8 °F 17.9 °F 15.8 °F 69% 30.33 in 10.0 mi NNW 5.8 mph - N/A   Clear
4:15 PM - - - N/A% 30.34 in 10.0 mi NW 6.9 mph - N/A   Clear
4:35 PM - - - N/A% 30.34 in 10.0 mi NW 3.5 mph - N/A   Clear
4:55 PM - - - N/A% 30.36 in 10.0 mi NW 3.5 mph - N/A   Clear
5:15 PM 21.2 °F - 12.2 °F 68% 30.37 in 10.0 mi Calm Calm - N/A   Clear
5:35 PM - - - N/A% 30.37 in 10.0 mi Calm Calm - N/A   Clear
5:55 PM - - - N/A% 30.38 in 10.0 mi SSE 4.6 mph - N/A   Clear
6:15 PM - - - N/A% 30.37 in 10.0 mi Calm Calm - N/A   Clear
6:35 PM - - - N/A% 30.38 in 10.0 mi Calm Calm - N/A   Clear
6:55 PM - - - N/A% 30.39 in 10.0 mi Calm Calm - N/A   Clear
7:15 PM - - - N/A% 30.39 in 10.0 mi SSE 6.9 mph - N/A   Clear
7:35 PM - - - N/A% 30.39 in 10.0 mi SE 5.8 mph - N/A   Clear
7:55 PM - - - N/A% 30.39 in 10.0 mi ESE 11.5 mph - N/A   Clear
8:15 PM 33.8 °F 28.6 °F 19.4 °F 56% 30.39 in 10.0 mi ESE 5.8 mph - N/A   Clear
8:35 PM 26.6 °F - 12.2 °F 55% 30.39 in 6.0 mi Calm Calm - N/A   Clear
8:55 PM 26.6 °F - 15.8 °F 64% 30.39 in 10.0 mi Calm Calm - N/A   Clear
9:15 PM 26.6 °F 21.2 °F 15.8 °F 64% 30.38 in 10.0 mi ESE 4.6 mph - N/A   Clear
9:35 PM 33.8 °F 28.6 °F 19.4 °F 56% 30.38 in 10.0 mi SSW 5.8 mph - N/A   Clear
10:15 PM 24.8 °F 20.5 °F 15.8 °F 69% 30.39 in 10.0 mi SSE 3.5 mph - N/A   Clear
10:35 PM 24.8 °F - 15.8 °F 69% 30.38 in 10.0 mi Calm Calm - N/A   Clear
10:55 PM 26.6 °F 22.6 °F 15.8 °F 64% 30.39 in 10.0 mi WNW 3.5 mph - N/A   Clear
11:15 PM 26.6 °F 22.6 °F 17.6 °F 69% 30.39 in 10.0 mi East 3.5 mph - N/A   Clear
11:35 PM 24.8 °F - 15.8 °F 69% 30.39 in 10.0 mi Calm Calm - N/A   Clear
11:55 PM 24.8 °F - 17.6 °F 74% 30.38 in 10.0 mi Calm Calm - N/A   Clear